Погода Александровское

Погода Александровское : погода сейчас, прогноз погоды и архив. Всё, что Вы хотите узнать о погоде Александровское!

Хотите узнать прогноз погоды Александровское? Тогда Вам сюда: Погода Александровское

Поиск расширенной информации на нашем сайте:

Другие новости

Новости СМИ2

Главная страница сайта

Новости сайта

03.07.2017

Напоминаем, что на нашем специализированном сайте Метеоцентр.Азия вы можете получить высокодетализированные автоматические прогнозы погоды по пунктам России, СНГ и мира в авиационном формате (включающие направление и скорость ветра, видимость, явления погоды, количество и форму облачности, нижнюю и верхнюю границу облачности).


Погода Александровское - сегодня

Время (UTC), дата Ветер
(°,м/с) 
Видим.   Явления Облачность Т
(°С)
Тd
(°С)
f(%) Тe
(°С)
Pmin
(гПа)
dP
(гПа)
Po
(мм)
O2
(г/м3)
Тmin Tmax R s Состояние
почвы
12 16.04.18 310 (СЗ) 20000 м    5/5 600 м 
[Sc]
-1 -9.4 53 -4  1000.8  0.4  746  303    +0.1       
15 16.04.18 290 (З) 20000 м  в посл. час ливневой снег  6/3 300 м кучево-дожд., верхняя 
[Cb calv|Ci fib]
-4.2 -9.1 69 -5  1002  1.2  747  307           
18 16.04.18 320 (СЗ) 50000 м  {ливн. осадки}  3/0 верхняя 
[Ci fib]
-7.2 -12.5 66 -11  1003  0.9  748  311           
00 17.04.18 300 (СЗ) 20000 м  слаб. снег  9/4 1000 м верхняя 
[Sc|Ci fib]
-11.9 -14.6 80 -14  1006.2  1.5  750  317  -11.9    0.0  32  мокрый или
старый снег
50-90% 
03 17.04.18 290 (З) 20000 м  слаб. ливневой снег  10/5 300 м кучево-дожд., верхняя 
[Cb calv|Ci fib]
-10.9 -15.2 71 -14  1008.1  1.9  751  317           
09 17.04.18 280 (З) 20000 м  в посл. час ливневой снег  10/3 600 м кучево-дожд., верхняя 
[Cb calv|Ci fib]
-8.1 -14.4 60 -11  1012.9  2.3  755  315           
12 17.04.18 280 (З) 20000 м  {ливн. осадки}  3/0 верхняя 
[Ci fib]
-8.3 -15.1 58 -12  1015.1  2.1  757  316    -7.4  0.3     
15 17.04.18 290 (З) 20000 м    3/0 верхняя 
[Ci fib]
-11.6 -16.2 69 -15  1016.9  1.8  758  320           
18 17.04.18 270 (З) 50000 м    ясно 
-14.4 -18 74 -17  1018.4  1.4  759  324           
21 17.04.18 260 (З) 50000 м    ясно 
-15.8 -18.7 78 -18  1019.3  0.8  760  326           
00 18.04.18 270 (З) 20000 м    3/0 верхняя 
[Ci fib]
-16.6 -18.9 82 -19  1020.8  1.5  761  328  -16.9      32  мокрый или
старый снег
50-90% 
03 18.04.18 280 (З) 20000 м    3/0 верхняя 
[Ci fib]
-13 -17.1 71 -15  1022  1.3  762  324           
06 18.04.18 290 (З) 20000 м    4/0 верхняя 
[Ci fib]
-9.4 -16.2 58 -12  1022.8  0.9  762  319           
09 18.04.18 340 (С) 20000 м    3/0 верхняя 
[Ci fib]
-6.5 -15.6 48 -8  1022.4  -0.3  762  316           
12 18.04.18 060 (СВ) 20000 м    4/0 верхняя 
[Ci fib]
-6.7 -15.6 49 -6  1021.3  -1.2  761  316    -6.3       
15 18.04.18 130 (ЮВ) 20000 м    5/0 верхняя 
[Ci fib]
-9.6 -15.9 60 -11  1020.2  -1.1  760  319           
18 18.04.18 180 (Ю) 50000 м    1/0 верхняя 
[Ci fib]
-10.1 -15.6 64 -12  1018.5  -1.7  759  319           
21 18.04.18 190 (Ю) 50000 м    1/0 верхняя 
[Ci fib]
-9.6 -16.4 58 -13  1016.3  -2.2  757  318           
00 19.04.18 200 (Ю) 20000 м    10/0 средняя, верхняя 
[Ac As|Ci fib]
-8.6 -14.7 61 -12  1014  -2.3  756  316  -11.2      32  мокрый или
старый снег
50-90% 
03 19.04.18 200 (Ю) 20000 м    8/0 верхняя 
[Cs]
-3.4 -12.3 50 -7  1011.4  -2.4  754  309           
12 19.04.18 210 (ЮЗ) 8-13{14}  20000 м    10/0 верхняя 
[Cs]
+2.1 -5.5 57 -2  1007  -0.2  751  301    +3.6       
15 19.04.18 210 (ЮЗ) 6{14}  20000 м    10/0 средняя 
[Ac As]
+2.1 -7.4 49 -1  1006.3  -0.6  750  301           
18 19.04.18 210 (ЮЗ) 6{13}  50000 м    10/0 средняя 
[Ac und]
+2 -6.2 55 -1  1004.8  -1.5  749  300           
21 19.04.18 210 (ЮЗ) 5{12}  50000 м    10/0 средняя 
[Ac und]
+1.3 -4.8 64 -1  1003.8  -1  748  301           
00 20.04.18 190 (Ю) 4{10}  20000 м    10/0 средняя 
[Ac und]
+0.8 -5.1 65 -2  1002.5  -1.3  747  301  +0.6      32  мокрый или
старый снег
50-90% 
Время (UTC), дата Ветер
(°,м/с) 
Видим.   Явления Облачность Т
(°С)
Тd
(°С)
f(%) Тe
(°С)
Pmin
(гПа)
dP
(гПа)
Po
(мм)
O2
(г/м3)
Тmin Tmax R s Состояние
почвы

Для получения пояснительной информации подведите курсор к названию столбца.

ПОГОДА Александровское - архив

Всё, что Вы хотите узнать о погоде Александровское - удобно и подробно!

Выберите нужную дату (начиная с 1 января 2015* года) и нажмите кнопку "Найти".
Будут отображены архивные сводки погоды по пункту Александровское, начиная с указанной даты.


Отображать данные в формате CSV (для использования в таблицах Excel)


Внимание! Наш архив погоды предназначен исключительно для личного некоммерческого использования в познавательных целях. Если Вам необходимы официальные справки о состоянии погоды (для производственных, юридических, коммерческих и т.п. целей), обращайтесь в органы Росгидромета.

*Примечание: данная дата относится к архиву по метеостанциям СССР (Россия, СНГ, Балтия).
Архив по метеостанциям Зарубежной Европы и Азии (кроме Китая) хранится 10 дней, по другим регионам земного шара (Китай, Африка, Америка, Австралия, Океания) - 1 день.

Александровское - район местоположения метеостанции


Название, широта, долгота, высота метеостанции:
Александровское 60.4°ш. 77.9°д. 48 м над ур. моря [Российская Федерация]

Дополнительная информация

В oтличие oт бoльшинства пoгoдных сайтoв мы публикуем пoдрoбную метеoинфoрмацию в детальнoм прoфессиoнальнoм фoрмате.

Характеристики температуры и влажнoсти вoздуха измеряются на высoте 2 м в тени вдали oт зданий и деревьев.
Скoрoсть ветра измеряется на высoте 10 м (на урoвне рoста челoвека скoрoсть ветра ниже в 1.5-2 раза). Если метеoстанция нахoдится в гoрoде или в лесу, тo скoрoсть ветра занижена на 2-4 м/с пo сравнению с oткрытым местoм. Скoрoсть ветра над акватoриями крупных рек и oзёр, а также на вершинах хoлмoв на 2-5 м/с выше, чем в oбычных услoвиях.
Атмoсфернoе давление в разных тoчках местнoсти мoжет значительнo oтличаться oт давления на метеoстанции, в зависимoсти oт услoвий рельефа (при пoдъёме на 10 м давление пoнижается примернo на 1 мм рт.ст.).